Showing default

SENTINEL 1B, 41456

Orbit data source: Space-Track

SENTINEL 1B, 41456 is an ESA payload satellite in SSO that was launched on Mon, 25 Apr 2016 UTC via a SOYUZ-ST-A launch vehicle from the French Guiana (FRGUI). Payload-class satellites include a variety of spacecraft equipped with specific instruments for various scientific and technological missions. These include communications satellites like Starlink; space stations such as the ISS; scientific satellites like the Hubble; Earth observation satellites from companies like Planet Labs, Umbra, and HawkEye 360; GPS; miniature CubeSats for education and research; and military/defense satellites.

Loading next visibility...
Identifier
41456, 2016-025A
Orbit
SSO
Country
Flag of ESAESA
Related business
Manufacturer
Thales Alenia
Mission
Non-operational Civil Radar Imaging
Bus & Motor
PRIMA, AOCS
Mass
2,157 kg wet, 2,027 kg dry
Launch date (UTC)
2016-04-25 (10 years ago)
Launch vehicle
SOYUZ-ST-A
Launch site
French Guiana (FRGUI)
Object type
Payload
Rocket body
Debris
Shape & HBR
Box + 4 Pan, 10.5 m
Radar Cross Section
23.487 m², Large (>1 m²)

Expand to show TLE details & history
Last TLE update: 5 hours ago

TLE from 5 hours ago
0 SENTINEL 1B
1 41456U 16025A   25351.93146466  .00002296  00000-0  19882-3 0  9999
2 41456  98.1191  40.5902 0016193  16.7856 343.3898 14.98120227516639
Epoch: 2025-12-17T22:21Z
TLE epoch observation values (Epoch: 2025-12-17T22:21:18.546Z)
Latitude
-0°
Longitude
-21.53132°
Altitude
564.957 km
Speed
7.585 km/s
True Right ascension
02h 42m 21s
True Declination
0° 00' 00"
Sunlit
Object was in full shadow at epoch
Visualization orbit readout
Latitude
Unknown
Longitude
Unknown
Altitude
Unknown
Speed
Unknown
Apparent Right ascension
Unknown
Apparent Declination
Unknown
Sunlit
N/A
Visualization observer readout
Local Sidereal Time
02:32:09
Azimuth
Unknown
Elevation
Unknown
Doppler factor
Unknown
Orbital elements
Apogee altitude
580.982 km
Perigee altitude
558.481 km
Semi-major axis
6,947.868 km
Eccentricity
0.00162
Inclination
98.1191°
RAAN
40.5902°
Arg. of periapsis
16.7856°
True anomaly
343.33665°
Mean anomaly
343.3898°
Eccentric anomaly
343.36324°
Mean motion
3.74771 °/min
Orbital period
96.06 mins
BSTAR
0.00019882
Loading maneuver chart data...
Computing Atmospheric mass density...
Loading historical data...
Loading historical data...
Loading historical data...
Loading historical data...
Loading historical data...
Loading historical data...
Loading historical data...

Documentation

Showing up to 5 results
|